www.pogodaiklimat.ru

Погода и климат >> Архив погоды >> Иран >> Yazd


ПОГОДА в Yazd

  • Прогноз погоды в Yazd
  • Монитор погоды в Yazd
  • Климат города

АРХИВ ПОГОДЫ в Yazd

Время (UTC), дата Ветер
(напр.,м/с)
 
Видим.   Явления Облачность Т
(С)
Тd
(С)
f
(%)
Тe
(С)
Тes
(С)
Комфортность P
(гПа)
Po
(гПа)
Тmin
(С)
Tmax
(С)
R
(мм)
R24
(мм)
S
(см)
00 14.11 З 2 10 км 1/0
[Ac As]
+9.9 +5.1 72 +9 +9 1018.7 881.4
03 14.11 СЗ 1 10 км 9/1 1200 м
[Sc diur, vesp Ac As]
+9.5 +5.6 77 +9 +9 1020.9 882.6 +9.0
06 14.11 С 1 7000 м мгла 8/0
[Ac As Cs]
+12.2 +4.9 61 +12 +17 1021.4 883.3
09 14.11 Ю 1 10 км 10/1 1050 м
[Cu hum Ac As Cs]
+16.3 +3.9 44 +17 +22 1018.5 881.3
12 14.11 СВ 2 10 км 10/1 1000 м
[Sc diur, vesp As trans Cs]
+16.5 +3.0 40 +17 +18 1016.7 879.6
15 14.11 С 1 8000 м мгла 9/1 1000 м
[Sc diur, vesp Ac As Cs]
+14.1 +3.6 49 +15 +15 1017.9 880.0 +17.2
18 14.11 З 1 10 км 9/0
[Ac As Cs]
+12.8 +2.9 51 +13 +13 1017.2 879.7
21 14.11 З 2 10 км 9/0
[Ac As Cs]
+11.6 +0.3 46 +11 +11 1016.6 879.7
00 15.11 З 2 12 км 8/0
[Ac As Cs]
+10.5 -1.9 42 +10 +10 1016.9 879.7
03 15.11 ЮВ 3 15 км 10/4 1050 м
[Sc Ac As Cs]
+11.1 -1.6 41 +10 +10 1016.5 879.0 +10.1
06 15.11 Ю 8 25 км 6/3 1050 м
[Cu hum Ac As Ci fib]
+13.6 +1.2 43 +11 +12 1017.1 879.8
09 15.11 В 2 25 км 9/3 1050 м
[Cu hum As op Ci fib]
+19.4 +2.8 33 +20 +24 1016.0 880.0
12 15.11 СЗ 5 15 км 8/4 1050 м
[Sc Ac As Ci fib]
+17.7 +0.2 31 +17 +18 1017.4 880.5
15 15.11 СЗ 2 15 км 8/4 1050 м
[Sc Ac As Ci fib]
+15.5 -0.6 33 +16 +16 1020.2 882.5 +20.8
18 15.11 СЗ 1 18 км 10/6 1200 м
[Sc Ac As Cs]
+13.0 +0.6 43 +13 +13 1021.4 883.6
21 15.11 СЗ 1 20 км 9/6 1200 м
[Sc Ac As]
+11.6 +0.6 47 +12 +12 1019.6 883.0
00 16.11 штиль 0 15 км 10/1 1050 м
[Cu hum As op Cs]
+10.5 +0.9 51 +10 +10 1019.3 882.2
03 16.11 СЗ 1 15 км 10/6 1200 м
[Cb calv Ac As Cs]
+10.0 +0.8 53 +10 +10 1021.3 883.3 +9.6
06 16.11 Ю 1 10 км 10/5 1050 м
[Cb calv Ac As Cs]
+12.8 +1.5 46 +13 +15 1022.0 884.0
09 16.11 СЗ 1 10 км 9/4 1050 м
[Cb calv Ac As Cs]
+14.7 +2.2 43 +15 +19 1020.6 882.9
12 16.11 Ю 2 10 км 9/3 1050 м
[Cb calv Ac As Cs]
+16.8 +3.3 40 +17 +18 1019.5 882.2
15 16.11 Ю 2 10 км 9/3 1050 м
[Cb calv Ac As Cs]
+16.4 +3.0 41 +17 +17 1020.4 882.8 +16.9
18 16.11 ЮВ 3 15 км 3/1 1200 м
[Sc diur, vesp Ac As]
+16.3 +7.4 56 +16 +16 1020.1 883.2
21 16.11 З 3 15 км ясно +9.7 +5.8 77 +8 +8 1020.8 883.7
00 17.11 З 2 12 км ясно +8.4 +6.9 90 +6 +6 1022.1 884.1
03 17.11 Ю 1 8000 м дымка ясно +6.7 +5.5 92 +6 +6 1023.6 884.9 +6.7
06 17.11 Ю 1 6000 м мгла ясно +13.2 +5.8 61 +14 +19 1023.0 885.8
09 17.11 СЗ 2 10 км 1/1 1000 м
[Cu hum]
+17.8 +5.4 44 +18 +26 1020.8 883.4
12 17.11 СЗ 3 10 км ясно +19.7 +4.8 37 +20 +22 1018.8 881.8
15 17.11 З 2 10 км ясно +16.1 +5.0 48 +16 +16 1021.0 882.5 +19.8
18 17.11 ЮЗ 2 10 км ясно +13.0 +4.4 56 +12 +12 1021.3 883.6
21 17.11 З 3 10 км ясно +12.5 +3.5 54 +11 +11 1020.6 883.2
00 18.11 ЮЗ 1 10 км ясно +9.3 +2.8 64 +9 +9 1020.6 883.5
03 18.11 ЮЗ 2 20 км ясно +7.3 +2.4 71 +5 +5 1023.0 884.3 +7.1
06 18.11 ЮВ 1 20 км ясно +14.9 +3.1 45 +16 +21 1022.6 885.0
09 18.11 В 1 20 км 1/1 1000 м
[Cu hum]
+19.0 +3.2 35 +20 +29 1018.7 882.4
12 18.11 ЮВ 1 25 км ясно +20.3 +2.3 30 +22 +24 комфорт 1016.9 880.4
15 18.11 СЗ 1 25 км 4/0
[Ci fib]
+16.5 +1.5 36 +17 +17 1019.2 881.1 +20.8
18 18.11 ЮВ 2 20 км 1/0
[Ci sp]
+15.5 +1.5 39 +16 +16 1017.5 881.1
21 18.11 ЮВ 1 20 км ясно +10.7 +0.7 50 +11 +11 1016.5 881.1
00 19.11 ЮВ 2 20 км ясно +9.9 +1.1 54 +9 +9 1017.0 880.6
03 19.11 ЮВ 1 20 км ясно +7.5 -0.6 56 +7 +7 1020.0 881.8 +7.4
06 19.11 СВ 1 20 км 3/0
[Ci fib]
+15.1 +0.8 38 +16 +21 1019.6 882.9
09 19.11 С 1 20 км 4/0
[Ci fib]
+20.1 -0.1 26 +21 +30 комфорт 1017.2 880.9
12 19.11 СЗ 1 20 км 6/0
[Cs]
+21.6 -1.3 22 +21 +23 комфорт 1016.0 880.0
15 19.11 штиль 0 15 км 6/0
[Cs]
+16.0 +0.1 34 +16 +16 1019.1 880.9 +21.7
18 19.11 ЮЗ 2 12 км 9/0
[Ac As Cs]
+14.7 -0.8 34 +15 +15 1018.2 881.5
21 19.11 З 3 20 км 6/0
[Ac trans Ci fib]
+12.4 -0.9 40 +11 +11 1017.4 881.4
00 20.11 З 2 20 км 3/0
[Ci fib]
+9.7 -0.8 48 +9 +9 1017.4 881.1
03 20.11 З 1 20 км 8/0
[Ac trans Cs]
+8.9 -0.3 52 +9 +9 1019.3 881.4 +8.0
06 20.11 ЮВ 1 15 км 10/0
[Ac As Cs]
+11.9 -0.1 44 +12 +16 1019.7 882.1
09 20.11 СЗ 2 15 км 10/1 1050 м
[Sc diur, vesp Ac As Cs]
+13.6 +1.0 42 +13 +17 1018.7 881.1
12 20.11 З 3 8000 м {дождь} 10/5 1050 м
[Cb calv As op]
+11.8 +7.3 74 +10 +10 1019.3 880.9 0.3
15 20.11 ЮЗ 3 8000 м слабый дождь 10/6 750 м
[Cb calv As op]
+10.4 +9.4 94 +8 +8 1020.4 881.4 +13.7
18 20.11 СЗ 2 9000 м в посл. час дождь 10/8 600 м
[Cb calv As op]
+10.0 +10.0 100 +8 +8 1019.8 881.5 1
21 20.11 С 1 10 км {дождь} 9/5 750 м
[Frnb As op]
+9.0 +7.5 90 +8 +8 1019.9 881.5

 

Местоположение метеостанции Yazd (Иран): широта 31.90 долгота 54.28 высота над уровнем моря 1237 м.

В архиве по умолчанию представлена погода в Yazd за последнюю неделю. Архивные данные за месяц целиком и за предыдущие месяцы, начиная с января 2011 года, Вы можете получить, выбрав интересующий диапазон дат из раскрывающегося списка и нажав кнопку "Ввод!".


*Определитесь, кто Вы:
робот инопланетянин человек

Внимание! Время в таблицах - всемирное. Для получения местного времени необходимо прибавить поправку, которая в Yazd равна 3.5 ч.

Смотрите также архив погоды в соседних городах и на ближайших метеорологических станциях:

Погода в Abadeh (Иран) (172 км)
Погода в Khor (Иран) (222 км)
Погода в Esfahan (Иран) (254 км)
Погода в Yasuj (Иран) (291 км)
Погода в Sirjan (Иран) (303 км)
Погода в Tabas (Иран) (311 км)
Погода в Shiraz (Иран) (312 км)
Погода в Kerman (Иран) (315 км)
Погода в Shahre-Kord (Иран) (326 км)
Погода в Fasa (Иран) (331 км)

Пояснения к столбцам:

Ветер - указаны скорость ветра в м/с - средняя за 10 мин, порывы в срок и между сроками (в фигурных скобках) и направление, откуда дует ветер: С - северный, СВ - северо-восточный, В - восточный, ЮВ - юго-восточный, Ю - южный, ЮЗ - юго-западный, З - западный, СЗ - северо-западный.
Видимость - горизонтальная дальность видимости в метрах или километрах. При видимости от 1 до 10 км при отсутствии осадков обычно наблюдается дымка, при ухудшении видимости до 1 км и менее - туман. В сухую погоду видимость может ухудшаться дымом, пылью или мглою.
Явления - указаны атмосферные явления, наблюдавшиеся в срок или в последний час перед сроком; фигурными скобками обозначены явления, наблюдавшиеся между сроками (за 1-3 часа до срока); квадратными скобками обозначены град или гололедные отложения с указанием их диаметра в мм.
Облачность - указаны через наклонную черту общая и нижняя облачность в баллах и высота нижней границы облаков в метрах; квадратными скобками обозначены формы облаков: Ci - перистые, Cs - перисто-слоистые, Cc - перисто-кучевые, Ac - высококучевые, As - высокослоистые, Sc - слоисто-кучевые, Ns - слоисто-дождевые, Cu - кучевые, Cb - кучево-дождевые. Подробнее классификацию облаков см. в Атласе облаков (PDF).
T - Температура воздуха - температура, измеренная на высоте 2 м над землей.
Td - Температура точки росы - температура, при понижении до которой содержащийся в воздухе водяной пар достигнет насыщения.
f - Относительная влажность воздуха - влажноcть воздуха, измеренная на высоте 2 м над землей.
Te - Эффективная температура - температура, которую ощущает одетый по сезону человек в тени. Характеристика душности погоды. При расчете учитывается влияние влажности воздуха и скорости ветра на теплоощущения человека.
Tes - Эффективная температура на солнце - температура, которую ощущает человек, с поправкой на солнечный нагрев. Характеристика знойности погоды. Зависит от высоты солнца над горизонтом, облачности и скорости ветра. Ночью, в пасмурную погоду, а также при ветре 12 м/с и более поправка равна нулю.
P - Атмосферное давление - приведенное к уровню моря атмосферное давление.
Po - Атмосферное давление - измеренное на уровне метеостанции атмосферное давление.
Tmin - Минимальная температура - минимум температуры воздуха на высоте 2 м над землей.
Tmax - Максимальная температура - максимум температуры воздуха на высоте 2 м над землей.
R - Количество осадков - Количество выпавших осадков за период времени, мм. При наведении курсора мыши на число - период времени, за который выпало указанное количество осадков.
R24 - Количество осадков - Количество выпавших осадков за 24 часа, мм.
S - Снежный покров - Высота снежного покрова, см. При наведении курсора мыши на число - состояние снежного покрова и степень покрытия местности в баллах.